Location: Newark
(39.5667°N, 8.9833°E)
Time: 11:10:15
(UTC+00:00)

Vanguard 1 - All Passes

Search period start: 20 October 2019 00:00
Search period end: 30 October 2019 00:00
Orbit: 653 x 3830 km, 34.2° (Epoch: 20 October)

Date Brightness Start Highest point End Pass type
(mag) Time Alt. Az. Time Alt. Az. Time Alt. Az.
20 Oct - 01:02:50 10° W 01:18:46 34° SW 01:37:58 10° SSE visible
20 Oct - 16:04:16 10° S 16:08:53 20° SE 16:15:22 10° E daylight
20 Oct - 18:20:39 10° WSW 18:28:24 58° SSE 18:42:55 10° E visible
20 Oct - 20:39:55 10° W 20:50:54 70° S 21:10:51 10° ESE visible
20 Oct - 23:00:46 10° W 23:15:17 53° SSW 23:37:00 10° SE visible
21 Oct - 01:25:08 10° W 01:39:49 27° SW 01:56:57 10° S visible
21 Oct - 16:23:55 10° SSW 16:29:16 28° SE 16:37:32 10° E daylight
21 Oct - 18:41:20 10° WSW 18:49:23 64° SSE 19:04:38 10° E visible
21 Oct - 21:00:53 10° W 21:12:11 67° S 21:32:24 10° ESE visible
21 Oct - 23:22:06 10° W 23:36:33 46° SSW 23:57:30 10° SE visible
22 Oct - 01:48:18 10° W 02:00:49 20° SW 02:14:58 10° S visible
22 Oct - 16:44:01 10° SSW 16:49:47 36° SSE 16:59:21 10° E visible
22 Oct - 19:02:08 10° WSW 19:10:27 67° S 19:26:20 10° E visible
22 Oct - 21:21:53 10° W 21:33:29 62° SSW 21:53:46 10° ESE visible
22 Oct - 23:43:35 10° W 23:57:47 38° SSW 00:17:34 10° SSE visible
23 Oct - 02:13:26 10° WSW 02:21:50 14° SW 02:30:53 10° SSW visible
23 Oct - 17:04:24 10° SW 17:10:28 45° SSE 17:21:02 10° E visible
23 Oct - 19:22:59 10° W 19:31:35 68° S 19:48:01 10° E visible
23 Oct - 21:42:56 10° W 21:54:46 56° SSW 22:14:54 10° SE visible
24 Oct - 00:05:24 10° W 00:18:59 31° SW 00:37:07 10° SSE visible
24 Oct - 15:08:51 10° S 15:12:08 16° SE 15:16:17 10° ESE daylight
24 Oct - 17:24:57 10° WSW 17:31:16 53° SSE 17:42:38 10° E visible
24 Oct - 19:43:51 10° W 19:52:45 67° S 20:09:37 10° ESE visible
24 Oct - 22:04:05 10° W 22:16:03 49° SSW 22:35:43 10° SE visible
25 Oct - 00:27:44 10° W 00:40:10 24° SW 00:55:57 10° S visible
25 Oct - 15:28:22 10° SSW 15:32:35 23° SE 15:38:28 10° E daylight
25 Oct - 17:45:38 10° WSW 17:52:11 60° SSE 18:04:14 10° E visible
25 Oct - 20:04:47 10° W 20:13:57 63° S 20:31:07 10° ESE visible
25 Oct - 22:25:21 10° W 22:37:19 41° SSW 22:56:10 10° SE visible
26 Oct - 00:51:04 10° WSW 01:01:20 18° SW 01:13:36 10° S visible
26 Oct - 15:48:26 10° SSW 15:53:07 31° SSE 16:00:12 10° E daylight
26 Oct - 18:06:24 10° WSW 18:13:10 63° S 18:25:48 10° E visible
26 Oct - 20:25:44 10° W 20:35:09 57° SSW 20:52:25 10° ESE visible
26 Oct - 22:46:51 10° W 22:58:34 34° SSW 23:16:11 10° SSE visible
27 Oct - 01:17:19 10° WSW 01:22:32 11° SW 01:28:10 10° SSW visible
27 Oct - 16:08:48 10° SW 16:13:47 40° SSE 16:21:46 10° E daylight
27 Oct - 18:27:13 10° W 18:34:13 64° S 18:47:21 10° ESE visible
27 Oct - 20:46:45 10° W 20:56:22 51° SSW 21:13:29 10° SE visible
27 Oct - 23:08:42 10° W 23:19:49 27° SSW 23:35:35 10° SSE night (unlit)
28 Oct - 14:13:23 10° S 14:15:35 13° SE 14:18:03 10° ESE daylight
28 Oct - 16:29:21 10° WSW 16:34:35 49° SSE 16:43:14 10° E daylight
28 Oct - 18:48:05 10° W 18:55:18 62° S 19:08:50 10° ESE visible
28 Oct - 21:07:52 10° W 21:17:35 43° SSW 21:34:14 10° SE visible
28 Oct - 23:31:11 10° WSW 23:41:05 20° SW 23:54:09 10° S night (unlit)
29 Oct - 14:32:42 10° SSW 14:36:07 20° SSE 14:40:19 10° ESE daylight
29 Oct - 16:50:02 10° WSW 16:55:26 55° SSE 17:04:40 10° E visible
29 Oct - 19:08:57 10° W 19:16:24 57° S 19:30:13 10° ESE visible
29 Oct - 21:29:09 10° W 21:38:48 36° SSW 21:54:35 10° SSE visible
